[[{"header":{"parameterUnit":"m.s-1","parameterCategory":1,"la1":30.2991,"la2":30.254,"lo1":-89.0895,"lo2":-89.0444,"dy":0.0017,"dx":0.0017,"nx":28,"ny":28,"refTime":"2025-07-24T21:00:00:Z","depth":0,"parameterNumber":2,"parameterNumberName":"U-component_of_WINDS"},"data":[0,0,0,0,0,0,0,0,0,0,0,0,0,0,0,0,0,0,0,0,0,0,0,0,0,0,0,0,0,0,0,0,0,0,0,0,0,0,0,0,0,0,0,0,0,0,0,0,0,0,0,0,0,0,0,0,0,0,-2.4753,-2.4754,0,-2.487,-2.4871,-2.4873,-2.4911,-2.491,-2.491,-2.4909,-2.5031,-2.5035,-2.5038,0,0,0,0,0,0,0,0,0,0,0,0,0,-2.4562,-2.4566,-2.4753,-2.4754,-2.4756,-2.487,-2.4871,-2.4873,-2.4911,-2.491,-2.4909,-2.4909,-2.503,-2.5034,-2.5039,0,0,0,0,0,0,0,0,0,0,0,0,0,-2.4659,-2.4567,-2.4752,-2.4788,-2.4792,-2.487,-2.4872,-2.4874,-2.4911,-2.491,-2.4909,-2.4908,-2.5028,-2.5034,-2.5039,-2.509,0,0,-2.5056,-2.5059,0,0,0,0,0,0,0,0,-2.4653,-2.4666,-2.4781,-2.4786,-2.4791,-2.4875,-2.4849,-2.4946,-2.4911,-2.4866,-2.4909,-2.4908,-2.498,-2.4989,-2.5013,-2.5096,-2.5101,-2.5057,-2.506,-2.5063,-2.5064,0,0,0,0,0,0,0,-2.4647,-2.4661,-2.4799,-2.4783,-2.4789,-2.4799,-2.4812,-2.4868,-2.4926,-2.487,-2.4873,-2.4886,-2.4982,-2.5008,-2.5016,-2.5103,-2.5057,-2.5062,-2.5065,-2.5067,-2.5232,-2.5233,0,0,0,0,0,0,-2.4634,-2.4655,-2.4795,-2.4803,-2.4719,-2.4803,-2.4817,-2.4849,-2.4925,-2.4936,-2.4887,-2.4887,-2.4999,-2.501,-2.5021,-2.5085,-2.5063,-2.5068,-2.5071,-2.5231,-2.5232,-2.5233,0,0,0,0,0,0,-2.463,-2.4646,-2.4791,-2.473,-2.4749,-2.4807,-2.4842,-2.4851,-2.4877,-2.4938,-2.4949,-2.4902,-2.4998,-2.5013,-2.5072,-2.5089,-2.5071,-2.5076,-2.523,-2.5232,-2.5233,-2.5212,0,0,0,0,0,0,-2.4624,-2.4644,-2.4664,-2.473,-2.4752,-2.484,-2.4843,-2.4854,-2.4886,-2.4888,-2.4955,-2.4966,-2.4999,-2.5064,-2.5078,-2.5097,-2.508,-2.5229,-2.5231,-2.5232,-2.5212,-2.5213,-2.5214,0,0,0,0,0,-2.4617,-2.4654,-2.4664,-2.4681,-2.4778,-2.484,-2.4853,-2.489,-2.4887,-2.4908,-2.4947,-2.4963,-2.5085,-2.5069,-2.5086,-2.5106,-2.5228,-2.523,-2.5232,-2.5211,-2.5213,-2.5214,0,0,0,0,0,0,-2.4589,-2.4663,-2.4676,-2.4735,-2.4781,-2.4847,-2.4873,-2.4891,-2.4939,-2.4939,-2.4983,-2.4998,-2.5054,-2.5087,-2.5067,-2.5159,-2.5157,-2.5163,-2.5136,-2.5138,-2.5139,-2.513,-2.5085,0,0,0,0,0,-2.4589,-2.4634,-2.4697,-2.4743,-2.4765,-2.4815,-2.4844,-2.4868,-2.4918,-2.4938,-2.4982,-2.503,-2.5079,-2.511,-2.5159,-2.5217,-2.5232,-2.5239,-2.524,-2.5241,-2.5245,-2.5278,-2.5282,-2.5241,-2.5241,-2.5241,0,0,-2.4591,-2.4637,-2.4663,-2.4738,-2.4777,-2.4822,-2.4831,-2.4879,-2.4913,-2.4946,-2.5004,-2.5037,-2.5094,-2.5153,-2.5181,-2.5182,-2.526,-2.5244,-2.5244,-2.5248,-2.5281,-2.5284,-2.5288,-2.5242,-2.5242,-2.5242,0,0,-2.4617,-2.4657,-2.4699,-2.4737,-2.4795,-2.4828,-2.4838,-2.4902,-2.4925,-2.4984,-2.5009,-2.5051,-2.5134,-2.5173,-2.5204,-2.5245,-2.5261,-2.5259,-2.5265,-2.5296,-2.5299,-2.5302,-2.5316,-2.5321,-2.5263,-2.5263,-2.5263,0,-2.4612,-2.4681,-2.4719,-2.4765,-2.4797,-2.4828,-2.4871,-2.4907,-2.4978,-2.5,-2.4999,-2.5105,-2.5145,-2.5213,-2.5223,-2.5247,-2.526,-2.5252,-2.5296,-2.5299,-2.5303,-2.5316,-2.5321,-2.5263,-2.5263,-2.5263,-2.5263,0,-2.4672,-2.4719,-2.4746,-2.4813,-2.4848,-2.4893,-2.4938,-2.4969,-2.4991,-2.5024,-2.5083,-2.5133,-2.5192,-2.521,-2.5232,-2.5281,-2.5279,-2.5287,-2.5286,-2.5305,-2.5319,-2.5324,-2.5262,-2.5262,-2.5262,-2.5262,0,0,-2.4683,-2.477,-2.4779,-2.4809,-2.4875,-2.4913,-2.4959,-2.5015,-2.5041,-2.5089,-2.5129,-2.5199,-2.5206,-2.5241,-2.5267,-2.5295,-2.5323,-2.5299,-2.5301,-2.5301,-2.5379,-2.5372,-2.5378,-2.5334,-2.5336,-2.5337,-2.5374,0,-2.4717,-2.4799,-2.4835,-2.4901,-2.4945,-2.4974,-2.5014,-2.5059,-2.5091,-2.5134,-2.517,-2.5218,-2.5224,-2.5245,-2.5274,-2.5313,-2.5339,-2.5311,-2.5371,-2.5373,-2.5355,-2.5385,-2.5378,-2.5411,-2.538,-2.5381,-2.5381,0,-2.4768,-2.4815,-2.4885,-2.4945,-2.4964,-2.4999,-2.5054,-2.5094,-2.5146,-2.5167,-2.5206,-2.5231,-2.528,-2.5276,-2.5345,-2.5325,-2.5352,-2.5375,-2.5377,-2.5384,-2.5378,-2.5392,-2.5423,-2.5428,-2.539,-2.539,-2.5389,0,-2.4768,-2.4849,-2.4901,-2.4927,-2.4998,-2.5022,-2.5053,-2.5103,-2.5135,-2.5183,-2.5204,-2.5257,-2.5287,-2.5328,-2.5366,-2.536,-2.5431,-2.5431,-2.5451,-2.545,-2.5464,-2.5462,-2.5499,-2.5482,-2.5482,-2.5482,-2.5482,0,-2.4802,-2.4844,-2.4902,-2.4934,-2.4982,-2.5022,-2.5068,-2.5102,-2.5146,-2.5186,-2.5215,-2.5252,-2.5301,-2.5344,-2.5375,-2.5427,-2.544,-2.5459,-2.5466,-2.5456,-2.5453,-2.5474,-2.5472,-2.5484,-2.5483,-2.5483,-2.5483,0,-2.4811,-2.4852,-2.491,-2.4972,-2.4989,-2.5021,-2.5075,-2.5107,-2.514,-2.519,-2.5204,-2.5256,-2.5308,-2.5351,-2.5419,-2.544,-2.5494,-2.5503,-2.5476,-2.548,-2.5497,-2.5495,-2.5548,-2.5557,-2.5534,-2.5534,-2.5535,0,-2.4829,-2.4862,-2.4927,-2.4955,-2.4985,-2.503,-2.5062,-2.5103,-2.5135,-2.5196,-2.5221,-2.5275,-2.532,-2.5401,-2.5446,-2.5498,-2.5509,-2.5524,-2.5517,-2.5505,-2.5508,-2.5506,-2.5509,-2.5524,-2.5524,-2.5524,-2.5524,0,-2.4858,-2.4876,-2.4921,-2.4972,-2.5009,-2.5052,-2.5096,-2.5117,-2.5166,-2.5201,-2.5254,-2.5289,-2.5358,-2.5411,-2.5468,-2.55,-2.5521,-2.5526,-2.5533,-2.5523,-2.5505,-2.5514,-2.5477,-2.5525,-2.5525,-2.5525,-2.5525,-2.5525,-2.4872,-2.4901,-2.4952,-2.5,-2.5037,-2.5077,-2.511,-2.5147,-2.5191,-2.525,-2.5272,-2.5325,-2.5376,-2.5455,-2.5487,-2.5531,-2.5533,-2.5544,-2.5546,-2.5548,-2.5546,-2.5498,-2.5541,-2.5541,-2.5541,-2.5541,-2.5542,0,-2.4901,-2.4934,-2.4979,-2.5038,-2.5076,-2.5091,-2.514,-2.5171,-2.5217,-2.5262,-2.5306,-2.5366,-2.5417,-2.5466,-2.552,-2.5545,-2.5555,-2.5557,-2.5556,-2.5563,-2.5541,-2.5529,-2.5548,-2.5548,-2.5548,-2.5548,-2.5548,-2.5548,-2.4921,-2.4972,-2.4996,-2.5065,-2.5099,-2.5151,-2.5177,-2.5214,-2.525,-2.5316,-2.5358,-2.5389,-2.5436,-2.5493,-2.5541,-2.5554,-2.5572,-2.5571,-2.5587,-2.5566,-2.5564,-2.5563,-2.5552,-2.5575,-2.5575,-2.5605,-2.5605,-2.5605]},{"header":{"parameterUnit":"m.s-1","parameterCategory":1,"la1":30.2991,"la2":30.254,"lo1":-89.0895,"lo2":-89.0444,"dy":0.0017,"dx":0.0017,"nx":28,"ny":28,"refTime":"2025-07-24T21:00:00:Z","depth":0,"parameterNumber":3,"parameterNumberName":"V-component_of_WINDS"},"data":[0,0,0,0,0,0,0,0,0,0,0,0,0,0,0,0,0,0,0,0,0,0,0,0,0,0,0,0,0,0,0,0,0,0,0,0,0,0,0,0,0,0,0,0,0,0,0,0,0,0,0,0,0,0,0,0,0,0,5.9952,5.9952,0,5.9992,5.9992,5.9992,5.9896,5.9893,5.989,5.9887,5.9924,5.9927,5.9931,0,0,0,0,0,0,0,0,0,0,0,0,0,5.9787,5.979,5.9952,5.9952,5.9953,5.9991,5.9992,5.9993,5.9896,5.9893,5.9889,5.9885,5.9923,5.9927,5.9932,0,0,0,0,0,0,0,0,0,0,0,0,0,5.9846,5.9791,5.9952,5.9909,5.9906,5.9991,5.9992,5.9993,5.9897,5.9893,5.9888,5.9884,5.9921,5.9927,5.9932,6.0059,0,0,5.995,5.9952,0,0,0,0,0,0,0,0,5.9842,5.9852,5.9915,5.9912,5.9909,5.9934,5.9947,6.0015,5.9898,5.99,5.9887,5.9881,5.9931,5.9935,5.9953,6.0061,6.0062,5.995,5.9954,5.9956,5.9958,0,0,0,0,0,0,0,5.9838,5.9849,5.9967,5.9916,5.9912,5.9887,5.989,5.996,5.994,5.99,5.9893,5.9899,5.9928,5.9947,5.9953,6.0063,5.995,5.9955,5.9959,5.9961,6.0273,6.0278,0,0,0,0,0,0,5.984,5.9847,5.9966,5.9968,5.9864,5.9893,5.9897,5.9931,5.994,5.9937,5.9903,5.9895,5.994,5.9946,5.9954,6.01,5.9956,5.9962,5.9965,6.0268,6.0274,6.0279,0,0,0,0,0,0,5.9837,5.9852,5.9964,5.9906,5.9918,5.9901,5.9939,5.9934,5.9953,5.9942,5.9938,5.9927,5.9936,5.9946,6.0033,6.01,5.9964,5.9969,6.0263,6.027,6.0277,6.0395,0,0,0,0,0,0,5.9833,5.9851,5.9901,5.9908,5.9922,6.0045,5.9944,5.9938,5.9964,5.9953,5.9963,5.996,5.9934,6.0025,6.0039,6.0105,5.9974,6.0256,6.0266,6.0274,6.0385,6.0405,6.0423,0,0,0,0,0,5.9827,5.9932,5.9904,5.9919,5.9983,6.0049,6.0057,6.0025,5.997,6.0018,6.001,5.996,6.0091,6.0035,6.0049,6.0119,6.0252,6.0263,6.0274,6.0376,6.0401,6.0422,0,0,0,0,0,0,5.9933,5.9933,5.9901,6.0012,6.0031,6.0033,6.0093,6.0053,6.0088,6.0076,6.0034,6.0037,6.0132,6.0134,6.0072,6.024,6.0162,6.0176,6.0235,6.0258,6.0277,6.0273,5.9979,0,0,0,0,0,5.997,6.0025,6.0021,6.0119,6.013,6.011,6.0138,6.0112,6.0129,6.0137,6.0136,6.0154,6.0198,6.0229,6.027,6.0386,6.0384,6.044,6.0459,6.0475,6.0487,6.0545,6.0568,6.0315,6.0315,6.0315,0,0,6.0045,6.0051,6.0089,6.014,6.0152,6.0207,6.0118,6.0181,6.0221,6.0146,6.0227,6.0228,6.0245,6.0346,6.0391,6.0351,6.0557,6.0489,6.0501,6.0505,6.0558,6.0582,6.0603,6.0323,6.0321,6.032,0,0,6.021,6.0222,6.0303,6.0317,6.0337,6.0322,6.0342,6.0349,6.0346,6.0428,6.0372,6.0419,6.0498,6.0511,6.0529,6.0697,6.0651,6.0712,6.081,6.0867,6.0887,6.0904,6.0961,6.0982,6.0725,6.0725,6.0725,0,6.03,6.0383,6.035,6.0416,6.0439,6.0375,6.0455,6.047,6.0502,6.0518,6.0474,6.057,6.0577,6.0679,6.072,6.0737,6.0756,6.0709,6.0887,6.0904,6.0919,6.0973,6.0995,6.0732,6.0731,6.073,6.073,0,6.0492,6.055,6.0613,6.0646,6.0676,6.0749,6.0724,6.0759,6.073,6.072,6.0802,6.0809,6.0848,6.0871,6.0844,6.0969,6.0943,6.0894,6.0814,6.0951,6.1001,6.1021,6.0742,6.0739,6.0737,6.0736,0,0,6.0724,6.0736,6.0759,6.0772,6.0788,6.0831,6.0901,6.094,6.0969,6.0993,6.1048,6.1116,6.1069,6.1089,6.1063,6.1113,6.1242,6.1057,6.1057,6.1088,6.1376,6.1411,6.1436,6.1213,6.1217,6.122,6.1374,0,6.0884,6.1004,6.0975,6.1092,6.1143,6.1083,6.1142,6.1158,6.115,6.1191,6.1182,6.1229,6.1167,6.1178,6.1225,6.1217,6.1299,6.1206,6.1261,6.1263,6.1255,6.1462,6.15,6.1644,6.1393,6.1396,6.1399,0,6.1087,6.1118,6.1241,6.1246,6.1267,6.1321,6.1353,6.1395,6.141,6.14,6.1422,6.1385,6.1451,6.1373,6.1461,6.1398,6.1419,6.1419,6.1423,6.1425,6.1337,6.1466,6.169,6.1711,6.143,6.1427,6.1425,0,6.1239,6.1313,6.1394,6.1408,6.1417,6.1456,6.1461,6.1472,6.1497,6.1525,6.154,6.1576,6.1595,6.1622,6.1595,6.1541,6.1687,6.1607,6.1678,6.1679,6.1709,6.1707,6.1937,6.1729,6.1728,6.1728,6.1727,0,6.1419,6.1496,6.1463,6.1513,6.1596,6.1561,6.1644,6.1642,6.1652,6.1699,6.165,6.1695,6.1657,6.1699,6.1678,6.1752,6.1762,6.1754,6.1747,6.1757,6.1758,6.1768,6.1756,6.1734,6.1732,6.1731,6.173,0,6.1603,6.1584,6.1669,6.167,6.1672,6.1733,6.1734,6.1779,6.1767,6.1828,6.184,6.1821,6.1867,6.1843,6.1891,6.1877,6.1972,6.1953,6.1967,6.1961,6.2032,6.2025,6.2274,6.2304,6.208,6.2082,6.2084,0,6.1717,6.1775,6.1782,6.1811,6.1819,6.1866,6.1891,6.1858,6.1886,6.1907,6.1949,6.199,6.2022,6.2097,6.2087,6.2123,6.2102,6.2187,6.2107,6.2114,6.2099,6.2095,6.2099,6.2202,6.2205,6.2207,6.2209,0,6.1922,6.1909,6.1948,6.1982,6.2013,6.2039,6.206,6.2086,6.2054,6.2087,6.2133,6.2158,6.2206,6.2247,6.2277,6.228,6.2239,6.2234,6.2252,6.2261,6.2266,6.2261,6.2008,6.2228,6.2226,6.2225,6.2224,6.2223,6.2072,6.2119,6.2131,6.2174,6.2187,6.2208,6.2249,6.2243,6.2281,6.2318,6.2297,6.235,6.2361,6.2398,6.2407,6.2447,6.2413,6.244,6.2446,6.2452,6.246,6.2262,6.2453,6.2452,6.2452,6.2451,6.2451,0,6.2271,6.2276,6.2316,6.2347,6.2381,6.234,6.2361,6.2391,6.2439,6.2454,6.2485,6.2537,6.2576,6.2569,6.2604,6.2638,6.2619,6.2648,6.2643,6.2644,6.249,6.247,6.2662,6.2662,6.2662,6.2662,6.2662,6.2662,6.2378,6.2455,6.2443,6.2524,6.2528,6.258,6.2595,6.2613,6.2624,6.2684,6.2717,6.2712,6.2717,6.2752,6.2785,6.2782,6.2796,6.2831,6.2821,6.2676,6.2655,6.2635,6.2616,6.2835,6.2836,6.2971,6.2972,6.2973]}]]